GW1127 Weather Reports


Display with metric or nautical units.
time (UTC)temp
F
wind
direction
speed
MPH
gust
MPH
rain 1hr
in
rain 24hr
in
rain mn
in
humidity
%
barometer
mb
20260502232919 58 0.0 0.0 0.00 0.36 0.17 73 1007.5
20260502231916 58 0.0 0.0 0.00 0.36 0.17 76 1007.5
20260502230939 58 0.0 0.0 0.00 0.36 0.17 76 1007.4
20260502225935 57 0.0 0.0 0.00 0.36 0.17 80 1007.3
20260502224919 57 353 0.0 1.0 0.00 0.36 0.17 82 1007.3
20260502223917 57 0.0 0.0 0.00 0.36 0.17 82 1007.3
20260502222917 57 0.0 0.0 0.00 0.36 0.17 81 1007.2
20260502221937 57 0.0 0.0 0.00 0.36 0.17 82 1007.2
20260502220917 57 0.0 0.0 0.00 0.36 0.17 81 1007.1
20260502215920 57 12 0.0 1.0 0.00 0.36 0.17 79 1007.0
20260502214958 57 290 0.0 2.0 0.00 0.36 0.17 79 1006.9
20260502213918 58 335 0.0 1.0 0.00 0.36 0.17 79 1006.8
20260502212919 58 178 1.0 2.0 0.00 0.36 0.17 77 1006.9
20260502211918 58 0.0 0.0 0.00 0.36 0.17 77 1006.9
20260502210918 58 352 2.0 3.0 0.00 0.36 0.17 77 1007.0
20260502205918 58 353 1.0 2.0 0.00 0.36 0.17 79 1007.0
20260502204918 57 333 0.0 1.0 0.00 0.36 0.17 79 1007.0
20260502203939 57 0.0 0.0 0.00 0.36 0.17 78 1007.0
20260502202940 57 0.0 0.0 0.00 0.36 0.17 76 1007.1
20260502201917 58 0.0 0.0 0.00 0.36 0.17 78 1007.0
20260502200916 58 158 1.0 3.0 0.00 0.36 0.17 76 1006.9
20260502195917 57 168 0.0 2.0 0.00 0.37 0.17 77 1007.0
20260502194917 58 180 2.0 2.0 0.00 0.37 0.17 77 1007.2
20260502193920 58 0.0 0.0 0.00 0.37 0.17 76 1007.3
20260502192921 57 166 2.0 4.0 0.00 0.37 0.17 78 1007.5
20260502191917 57 177 1.0 3.0 0.00 0.37 0.17 79 1007.5
20260502190918 58 170 1.0 2.0 0.00 0.37 0.17 78 1007.5
20260502185917 57 342 0.0 1.0 0.00 0.37 0.17 80 1007.7
20260502184937 57 150 1.0 3.0 0.00 0.37 0.17 79 1007.8
20260502183918 57 8 1.0 3.0 0.00 0.37 0.17 81 1007.9
20260502182918 56 351 0.0 1.0 0.00 0.37 0.17 83 1008.0
20260502181918 55 163 1.0 3.0 0.00 0.37 0.17 83 1008.1
20260502180918 55 273 1.0 2.0 0.00 0.37 0.17 83 1008.3
20260502163920 54 356 2.0 4.0 0.00 0.37 0.17 90 1009.2
20260502162940 53 351 1.0 2.0 0.00 0.37 0.17 88 1009.5
20260502162000 53 348 3.0 4.0 0.00 0.37 0.17 88 1009.7
20260502160921 53 267 1.0 1.0 0.00 0.37 0.17 88 1009.9
20260502151921 54 0.0 0.0 0.02 0.36 0.16 90 1009.5
20260502150922 54 322 1.0 2.0 0.02 0.36 0.16 90 1009.5
20260502122917 52 320 1.0 3.0 0.06 0.31 0.11 90 1008.5
20260502121916 52 333 1.0 2.0 0.06 0.31 0.11 90 1008.2
20260502120919 52 268 0.0 2.0 0.06 0.30 0.11 90 1008.3
20260502115920 52 9 1.0 2.0 0.09 0.30 0.10 89 1008.3
20260502114921 52 28 0.0 1.0 0.09 0.30 0.10 89 1008.4
20260502113917 52 23 0.0 2.0 0.05 0.26 0.06 88 1008.4
20260502112937 52 10 1.0 3.0 0.04 0.25 0.05 88 1008.3
20260502111917 52 0.0 0.0 0.05 0.25 0.05 88 1008.4
20260502110957 53 338 0.0 1.0 0.05 0.24 0.05 87 1008.5
20260502105918 53 338 0.0 1.0 0.02 0.21 0.02 86 1008.4
20260502104918 54 3 1.0 2.0 0.01 0.21 0.01 84 1008.4
20260502103918 54 355 1.0 2.0 0.01 0.21 0.01 83 1008.5
20260502102918 54 343 1.0 2.0 0.01 0.21 0.01 83 1008.6
20260502101919 54 25 1.0 2.0 0.00 0.20 0.00 85 1008.6
20260502100916 53 314 0.0 1.0 0.00 0.20 0.00 86 1008.7
20260502090916 52 0.0 0.0 0.00 0.20 0.00 92 1008.6
20260502070919 52 19 1.0 2.0 0.00 0.20 0.00 92 1007.7
20260502065918 52 30 0.0 1.0 0.00 0.20 0.00 92 1007.7
20260502064916 52 34 0.0 1.0 0.00 0.20 0.00 92 1007.6
20260502063919 52 0.0 0.0 0.00 0.20 0.00 92 1007.7
20260502062916 52 0.0 0.0 0.00 0.20 0.00 91 1007.7
20260502061919 52 0.0 0.0 0.00 0.20 0.00 91 1007.8
20260502060919 52 0.0 0.0 0.00 0.20 0.00 91 1007.9
20260502055920 52 0.0 0.0 0.00 0.20 0.00 91 1007.8
20260502054917 52 27 0.0 0.0 0.00 0.20 0.00 91 1007.9
20260502053937 52 0.0 0.0 0.00 0.20 0.00 91 1008.0
20260502052917 52 0.0 0.0 0.00 0.20 0.00 91 1008.0
20260502051957 52 0.0 0.0 0.00 0.20 0.00 91 1008.1
20260502050937 52 0.0 0.0 0.00 0.20 0.00 91 1008.3
20260502045918 52 0.0 0.0 0.00 0.20 0.00 91 1008.3
20260502044918 52 0.0 0.0 0.00 0.20 0.00 90 1008.3
20260502043938 52 0.0 0.0 0.00 0.20 0.00 90 1008.4
20260502042918 52 0.0 0.0 0.00 0.20 0.00 89 1008.4
20260502041918 53 0.0 0.0 0.00 0.20 0.00 89 1008.5
20260502040918 53 0.0 0.0 0.00 0.20 0.00 88 1008.7
20260502035918 53 0.0 0.0 0.00 0.20 0.20 88 1008.6
20260502034920 53 0.0 0.0 0.00 0.20 0.20 87 1008.7
20260502033919 53 327 0.0 1.0 0.00 0.20 0.20 87 1008.7
20260502032919 53 0.0 0.0 0.00 0.20 0.20 87 1008.5
20260502031916 53 309 0.0 1.0 0.00 0.20 0.20 87 1008.7
20260502030917 53 0.0 0.0 0.00 0.20 0.20 86 1008.8
20260502025917 54 0.0 0.0 0.00 0.20 0.20 86 1008.8
20260502024940 54 0.0 0.0 0.00 0.20 0.20 85 1008.8
20260502023917 54 0.0 0.0 0.00 0.20 0.20 84 1008.8
20260502022958 54 134 0.0 0.0 0.00 0.20 0.20 84 1008.8
20260502021917 54 326 0.0 1.0 0.00 0.20 0.20 84 1009.0
20260502020958 54 172 0.0 2.0 0.00 0.20 0.20 84 1008.9
20260502015918 54 0.0 0.0 0.00 0.20 0.20 84 1009.0
20260502014918 54 0.0 0.0 0.00 0.20 0.20 84 1008.8
20260502013919 54 0.0 0.0 0.00 0.20 0.20 84 1008.8
20260502012918 54 0.0 0.0 0.00 0.20 0.20 84 1008.8
20260502011918 54 0.0 0.0 0.00 0.20 0.20 84 1008.8
20260502010916 53 0.0 0.0 0.00 0.20 0.20 84 1008.7
20260502005916 53 314 0.0 1.0 0.01 0.20 0.20 84 1008.3
20260502004919 53 0.0 0.0 0.03 0.20 0.20 83 1008.3
20260502003919 54 295 0.0 1.0 0.17 0.20 0.20 82 1008.2
20260502002919 54 0.0 0.0 0.19 0.20 0.20 82 1008.0
20260502001939 54 21 0.0 1.0 0.19 0.20 0.20 80 1007.9
20260502000918 55 129 1.0 2.0 0.19 0.20 0.20 79 1008.0
20260501235918 55 0.0 0.0 0.18 0.19 0.19 78 1008.0
20260501234938 56 0.0 0.0 0.16 0.16 0.16 76 1008.0
20260501233920 56 0.0 0.0 0.03 0.03 0.03 76 1007.9